Regional Weather Roundup
Issued by NWS

Home | Current Version | Previous Version | Graphics & Text | Print | Product List | Glossary On
Versions: 1 2 3 4 5 6 7 8 9 10 11 12 13 14 15 16 17 18 19 20 21 22 23 24 25 26 27 28 29 30 31 32 33 34 35 36 37 38 39 40 41 42 43 44 45 46 47 48 49 50
000
ASUS43 KIND 251909
RWRIN

WEATHER ROUNDUP FOR INDIANA
NATIONAL WEATHER SERVICE INDIANAPOLIS IN
300 PM EDT SUN JUN 25 2017

NOTE: "FAIR" INDICATES FEW OR NO CLOUDS BELOW 12,000 FEET WITH NO
SIGNIFICANT WEATHER AND/OR OBSTRUCTIONS TO VISIBILITY.

* - STATION DOES NOT REPORT WEATHER SUCH AS PRECIPITATION OR FOG.

+ - STATION NOT QUALITY CONTROLLED BY THE NATIONAL WEATHER SERVICE.
    USE DATA WITH CAUTION...ESPECIALLY DEWPOINT AND RELATIVE
    HUMIDITY OBSERVATIONS.

INZ001>003-010>013-019-020-252000-
NORTHWEST INDIANA

CITY           SKY/WX    TMP DP  RH WIND       PRES   REMARKS
GARY /AIRPORT/ PTSUNNY   72  39  30 W20       30.11F
KNOX *+        PTSUNNY   70  34  26 W13       30.10S
LA PORTE +     PTSUNNY   71  45  39 NW12G18   30.11S
MICHIGAN CITY+ SUNNY     70  45  40 W10G20    30.11S
MONTICELLO +   MOSUNNY   72  44  36 W15       30.12F
VALPARAISO     MOSUNNY   73  44  35 W16       30.11S

$$

LMZ046-743>745-252000-
SOUTHERN LAKE MICHIGAN

STATION/POSITION TIME  TEMP    WIND        PRES    WAVE
                       AIR SEA DIR/SP/G            HT
                 (UTC) (F)     (DEG/KT/KT) (MB)    (FT)
BURNS HARBOR     1840   67     290/ 14/ 17 1019.3F
MICHIGAN CITY    1840   66     270/ 13/ 15   N/A
5NW MICH CITY    1900   66 66  290/ 10/ 12   N/A     3

$$

INZ004-005-014>016-021>024-252000-
NORTH CENTRAL INDIANA

CITY           SKY/WX    TMP DP  RH WIND       PRES   REMARKS
ELKHART        MOSUNNY  N/A N/A N/A W14       30.07S
GOSHEN         MOSUNNY   69  42  37 W18G25    30.09S
LOGANSPORT +   PTSUNNY   70  45  40 W14G23    30.13F
PERU/GRISSOM   MOSUNNY   71  46  39 W18       30.11S
ROCHESTER +    MOSUNNY   72  41  33 W12G17    30.11F
SOUTH BEND     MOSUNNY   69  46  43 NW13G22   30.10S
WARSAW +       PTSUNNY   68  45  42 W17G23    30.10S

$$

INZ006>009-017-018-025>027-252000-
NORTHEAST INDIANA

CITY           SKY/WX    TMP DP  RH WIND       PRES   REMARKS
AUBURN +       MOSUNNY   70  41  35 W12G20    30.09F
FORT WAYNE     PTSUNNY   70  46  42 W20       30.10F
HUNTINGTON +   PTSUNNY   69  43  39 W7G21     30.11F
KENDALLVILLE + MOSUNNY   71  44  37 W18G24    30.09S

$$

INZ028-029-035-036-043>045-051>053-252000-
WEST CENTRAL INDIANA

CITY           SKY/WX    TMP DP  RH WIND       PRES   REMARKS
CRAWFORDSVL +  PTSUNNY   71  49  45 W10G23    30.14F
GREENCASTLE +  MOSUNNY   72  45  37 NW6G17    30.15F
LAFAYETTE      PTSUNNY   69  49  48 W14G20    30.13F
TERRE HAUTE    MOSUNNY   74  48  39 W9        30.15F

$$

INZ030>032-037>040-046>048-054>057-064-065-252000-
CENTRAL INDIANA

CITY           SKY/WX    TMP DP  RH WIND       PRES   REMARKS
CP ATTERBURY + SUNNY     75  45  33 NW15G22   30.15S
COLUMBUS       SUNNY     75  39  27 W14G23    30.14F
FRANKFORT +    PTSUNNY   72  49  43 W14G21    30.16S
GREENWOOD *+   SUNNY     73  46  38 W14G23    30.15F
INDIANAPOLIS   MOSUNNY   75  48  38 W18       30.14F
-EAGLE CREEK   PTSUNNY   73  48  41 NW15      30.14F
KOKOMO +       PTSUNNY   69  46  43 W20G25    30.13F
MARION +       PTSUNNY   70  45  40 W15G25    30.14S
MT COMFORT *+  SUNNY     73  46  38 W16G25    30.15F
SHELBYVILLE    SUNNY     76  47  35 W16G25    30.13F
ZIONSVILLE +   PTSUNNY   70  49  48 W13       30.15S

$$

INZ033-034-041-042-049-050-058-059-252000-
EAST CENTRAL INDIANA

CITY           SKY/WX    TMP DP  RH WIND       PRES   REMARKS
MUNCIE         PTSUNNY   70  47  43 W14       30.13F
RICHMOND +     MOSUNNY   72  46  40 W18       30.14S

$$

INZ060-061-067>069-081>083-085>088-252000-
SOUTHWEST INDIANA

CITY           SKY/WX    TMP DP  RH WIND       PRES   REMARKS
EVANSVILLE     MOSUNNY   82  51  34 W13G23    30.17F
HUNTINGBURG *+ MOSUNNY   80  53  39 W17G25    30.16F
WASHINGTON +   SUNNY     78  45  31 W12G22    30.15F

$$

INZ062-063-066-070>080-084-089>092-252000-
SOUTH CENTRAL AND SOUTHEAST INDIANA

CITY           SKY/WX    TMP DP  RH WIND       PRES   REMARKS
BEDFORD +      MOSUNNY   77  45  31 W9        30.14F
BLOOMINGTON    MOSUNNY   78  46  32 W13G22    30.15F
MADISON *+     MOSUNNY   79  43  27 W9G23     30.16F
NORTH VERNON + SUNNY     75  50  41 W17G25    30.14F
SEYMOUR +      MOSUNNY   79  52  38 W17G23    30.13F

$$





USA.gov is the U.S. government's official web portal to all federal, state and local government web resources and services.